#timestamp,LO_Frequency,Hit,StdDev 
1648893615.1,286047001.0,N
1648893616.0,286047001.0,N
1648893635.8,286047002.7,N
1648893655.6,286047002.8,N
1648893675.5,286047002.8,N
1648893695.3,286047002.5,N
1648893715.2,286046999.7,N
1648893735.9,286047000.2,N
1648893755.7,286047002.2,N
1648893775.6,286047002.2,N
1648893795.4,286047002.5,N
1648893815.2,286047002.8,N
1648893835.1,286047000.2,N
1648893836.0,286047000.2,N
1648893855.8,286046999.7,N
1648893875.7,286047002.4,N
1648893895.5,286047002.4,N
1648893915.3,286047002.0,N
1648893935.2,286047001.6,N
1648893955.0,286047004.1,Y
1648893955.9,286047004.1,P
1648893975.8,286047002.0,N
1648893995.6,286047004.4,P
1648894015.4,286047001.7,N
1648894035.3,286047002.0,N
1648894055.1,286047000.2,N
1648894075.8,286046999.7,N
1648894095.7,286046999.7,N
1648894115.5,286047004.4,N
1648894135.4,286047002.0,N
1648894155.2,286047002.1,N
1648894175.0,286047001.4,N
1648894175.9,286047001.4,N
1648894195.8,286047004.3,N
1648894215.6,286047005.5,Y
1648894235.4,286047004.3,P
1648894255.3,286047003.3,N
1648894275.1,286047003.4,P
1648894295.9,286047003.9,Y
1648894315.7,286046999.9,P
1648894335.5,286046998.8,N
1648894355.4,286046999.3,N
1648894375.2,286046998.4,N
1648894395.0,286046996.5,N
1648894395.9,286046996.5,N
1648894415.8,286046998.8,N
1648894435.6,286046999.1,N
1648894455.5,286046996.7,N
1648894475.3,286046996.8,N
1648894495.1,286046999.4,N
1648894515.9,286046999.2,N
1648894535.7,286046996.6,N
1648894555.5,286046999.6,N
1648894575.4,286046999.2,N
1648894595.2,286046999.6,N
1648894615.1,286046999.1,N
1648894616.0,286046999.1,N
1648894635.8,286046999.3,N
1648894655.6,286046999.2,N
1648894675.5,286046996.8,N
1648894695.3,286046996.8,N
1648894715.1,286046997.1,N
1648894735.9,286046996.9,N
1648894755.7,286046998.0,N
1648894775.6,286046996.5,N
1648894795.4,286047000.7,N
1648894815.2,286046998.4,N
1648894835.1,286046998.6,N
1648894836.0,286046998.6,N
1648894855.8,286047002.5,N
1648894875.6,286047004.4,Y
1648894895.5,286047001.8,P
1648894915.3,286047002.4,N
1648894935.2,286047000.2,N
1648894955.9,286047000.5,N
1648894975.7,286047002.8,N
1648894995.6,286047000.8,N
1648895015.4,286047000.4,N
1648895035.2,286047000.4,N
1648895055.1,286047002.6,N
1648895056.0,286047002.6,N
1648895075.8,286047001.9,N
1648895095.7,286047002.3,N
1648895115.5,286047001.3,N
1648895135.3,286047003.6,N
1648895155.2,286047001.7,N
1648895175.0,286047002.5,N
1648895175.9,286047002.5,N
1648895195.8,286047004.4,Y
1648895215.6,286047001.3,P
1648895235.4,286047001.9,P
1648895255.3,286047000.0,N
1648895275.1,286047003.9,Y
1648895295.8,286047002.7,P
1648895315.7,286047001.1,N
1648895335.5,286047000.9,N
1648895355.4,286047002.8,Y
1648895375.2,286046996.5,P
1648895395.0,286046996.6,N
1648895395.9,286046996.6,N
1648895415.8,286047000.1,N
1648895435.6,286046999.9,N
1648895455.4,286046998.6,N
1648895475.3,286046999.0,N
1648895495.1,286046999.4,N
1648895515.9,286046996.9,N
1648895535.7,286046998.4,N
1648895555.5,286046999.5,N
1648895575.4,286046996.8,N
1648895595.2,286046999.1,N
1648895615.0,286046998.9,N
1648895616.0,286046998.9,N
1648895635.8,286047001.1,N
1648895655.6,286047001.2,N
1648895675.5,286046998.4,N
1648895695.3,286047001.1,N
1648895715.1,286046999.0,N
1648895735.9,286047001.1,N
1648895755.7,286046998.5,N
1648895775.6,286047002.6,N
1648895795.4,286047002.0,N
1648895815.2,286047001.6,N
1648895835.1,286047003.5,N
1648895836.0,286047003.5,N
1648895855.8,286047006.0,N
1648895875.6,286047001.5,N
1648895895.5,286047002.1,N
1648895915.3,286047002.8,N
1648895935.2,286046999.9,N
1648895955.9,286046998.9,N
1648895975.7,286046996.7,N
1648895995.6,286046996.6,N
1648896015.4,286046996.8,N
1648896035.2,286046995.2,N
1648896055.1,286046995.8,N
1648896056.0,286046995.8,N
1648896075.8,286046995.0,N
1648896095.7,286046995.0,N
1648896115.5,286046997.7,N
1648896135.3,286046999.3,N
1648896155.2,286047000.8,N
1648896175.0,286046997.8,N
1648896175.9,286046997.8,N
1648896195.7,286046995.3,N
1648896215.6,286046997.6,N
1648896235.4,286046996.8,N
1648896255.3,286046996.9,N
1648896275.1,286046998.4,N
1648896276.0,286046998.4,N
1648896295.8,286046997.2,N
1648896315.7,286046999.2,N
1648896335.5,286046998.6,N
1648896355.3,286046998.3,N
1648896375.2,286046999.2,N
1648896395.0,286046998.6,N
1648896395.9,286046998.6,N
1648896415.8,286046998.4,N
1648896435.6,286046996.5,N
1648896455.4,286047000.6,N
1648896475.3,286046999.7,N
1648896495.1,286047002.6,N
1648896515.8,286046999.8,N
1648896535.7,286047000.1,N
1648896555.5,286046996.8,N
1648896575.4,286046996.7,N
1648896595.2,286046997.6,N
1648896615.0,286046999.5,N
1648896615.9,286046999.5,N
1648896635.8,286046999.2,N
1648896655.6,286046998.3,N
1648896675.4,286046999.7,N
1648896695.3,286047000.2,N
1648896715.1,286047001.6,N
1648896735.9,286047001.3,N
1648896755.7,286047001.7,N
1648896775.5,286047002.2,N
1648896795.4,286047002.0,N
1648896815.2,286047002.5,N
1648896835.0,286047001.8,N
1648896836.0,286047001.8,N
1648896855.8,286047001.8,N
1648896875.6,286047001.6,N
1648896895.5,286047001.7,N
1648896915.3,286047003.2,N
1648896935.1,286047003.2,N
1648896955.9,286047001.3,N
1648896975.7,286047002.8,N
1648896995.6,286047000.6,N
1648897015.4,286047000.0,N
1648897035.2,286047002.3,N
1648897055.1,286046999.8,N
1648897056.0,286046999.8,N
1648897075.8,286047001.0,N
1648897095.6,286047000.4,N
1648897115.5,286047000.6,N
1648897135.3,286047000.4,N
1648897155.2,286047000.8,N
1648897175.9,286047000.7,N
1648897195.7,286047000.9,N
